User: anonymous   Login
Location: Newark
(23.1300°N, 73.6109°E)
Time: 13:34:54
(UTC+00:00)
Language:

AO-7 - Orbit

View from above orbital plane
View from above orbital plane
View from above satellite
View from above satellite

Ground track
Ground track

The orbit data is extracted from the following two-line orbital elements,

1  7530U 74089B   20188.80322031 -.00000043 +00000-0 +15480-4 0  9991
2  7530 101.8006 158.4369 0012074 328.9849 147.1167 12.53644050088414
Epoch (UTC): 06 July 2020 19:16:38
Eccentricity: 0.0012074
inclination: 101.8006°
perigee height: 1440 km
apogee height: 1459 km
right ascension of ascending node: 158.4369°
argument of perigee: 328.9849°
revolutions per day: 12.53644050
mean anomaly at epoch: 147.1167°
orbit number at epoch: 8841

The dashed part of the orbit path shows where the satellite is in the earth's shadow,  

DLR